Regional Weather Roundup
Issued by NWS

Home | Current Version | Previous Version | Graphics & Text | Print | Product List | Glossary On
Versions: 1 2 3 4 5 6 7 8 9 10 11 12 13 14 15 16 17 18 19 20 21 22 23 24 25 26 27 28 29 30 31 32 33 34 35 36 37 38 39 40 41 42 43 44 45 46 47 48 49 50
000
ASUS43 KIND 180009
RWRIN

WEATHER ROUNDUP FOR INDIANA
NATIONAL WEATHER SERVICE INDIANAPOLIS IN
800 PM EDT FRI APR 17 2015

NOTE: "FAIR" INDICATES FEW OR NO CLOUDS BELOW 12,000 FEET WITH NO
SIGNIFICANT WEATHER AND/OR OBSTRUCTIONS TO VISIBILITY.

* - STATION DOES NOT REPORT WEATHER SUCH AS PRECIPITATION OR FOG.

+ - STATION NOT QUALITY CONTROLLED BY THE NATIONAL WEATHER SERVICE.
    USE DATA WITH CAUTION...ESPECIALLY DEWPOINT AND RELATIVE
    HUMIDITY OBSERVATIONS.

INZ001>003-010>013-019-020-180100-
NORTHWEST INDIANA

CITY           SKY/WX    TMP DP  RH WIND       PRES   REMARKS
GARY /AIRPORT/ PTCLDY    70  36  28 E7        30.00F
KNOX *+        CLOUDY    72  18  13 CALM      30.00S
MICHIGAN CITY+ CLOUDY    70  37  30 CALM      30.01F
MONTICELLO +   CLEAR     71  49  45 SW5       30.00F
6HR MIN TEMP:  71; 6HR MAX TEMP:  75;

RENSSELAER +   CLEAR     73  45  35 W5        30.01S
VALPARAISO     CLOUDY    74  46  36 CALM      30.01S
6HR MIN TEMP:  73; 6HR MAX TEMP:  78;


$$

LMZ046-743>745-180100-
SOUTHERN LAKE MICHIGAN

STATION/POSITION TIME  TEMP WIND        PRES
                       AIR  DIR/SP/G
                 (UTC) (F)  (DEG/KT/KT) (MB)
BURNS HARBOR     0000   62   90/  6/  9 1016.3S
MICHIGAN CITY    0000   68   40/  9/ 10   N/A
4NW MICH CITY    0000   55                N/A

$$

INZ004-005-014>016-021>024-180100-
NORTH CENTRAL INDIANA

CITY           SKY/WX    TMP DP  RH WIND       PRES   REMARKS
ELKHART        CLEAR     72  36  26 NW5       30.02S
GOSHEN         CLEAR     69  44  40 NW10      30.02R
6HR MIN TEMP:  69; 6HR MAX TEMP:  75;

LOGANSPORT +   CLEAR     68  46  45 S7        30.03S
PERU/GRISSOM   CLEAR     67  51  56 SW8       30.02S
6HR MIN TEMP:  67; 6HR MAX TEMP:  76;

ROCHESTER +    PTCLDY    73  46  38 N3        30.02R
SOUTH BEND     CLOUDY    70  45  40 N6        30.02S
6HR MIN TEMP:  70; 6HR MAX TEMP:  76;

WARSAW +       PTCLDY    70  45  40 CALM      30.02S

$$

INZ006>009-017-018-025>027-180100-
NORTHEAST INDIANA

CITY           SKY/WX    TMP DP  RH WIND       PRES   REMARKS
ANGOLA *+      MOCLDY    72  45  37 NW6       30.01S
AUBURN +       PTCLDY    70  41  35 NW3       30.02S
FORT WAYNE     MOCLDY    71  47  42 W5        30.02S
6HR MIN TEMP:  71; 6HR MAX TEMP:  77;

HUNTINGTON +   PTCLDY    70  37  29 W3        30.01S
6HR MIN TEMP:  70; 6HR MAX TEMP:  75;


$$

INZ028-029-035-036-043>045-051>053-180100-
WEST CENTRAL INDIANA

CITY           SKY/WX    TMP DP  RH WIND       PRES   REMARKS
CRAWFORDSVL +  MOCLDY    70  40  33 CALM      30.03S
6HR MIN TEMP:  70; 6HR MAX TEMP:  73;

GREENCASTLE +  MOCLDY    70  43  37 CALM      30.03S
LAFAYETTE      PTCLDY    71  45  39 SW3       30.01F
6HR MIN TEMP:  71; 6HR MAX TEMP:  75;

TERRE HAUTE    PTCLDY    73  51  46 CALM      30.01S
6HR MIN TEMP:  72; 6HR MAX TEMP:  77;


$$

INZ030>032-037>040-046>048-054>057-064-065-180100-
CENTRAL INDIANA

CITY           SKY/WX    TMP DP  RH WIND       PRES   REMARKS
CP ATTERBURY + MOCLDY    72  41  33 CALM      30.02S
COLUMBUS       CLEAR     68  48  49 CALM      30.02S
FRANKFORT +    PTCLDY    73  44  35 CALM      30.05S
GREENWOOD *+   MOCLDY    72  36  26 CALM      30.03S
INDIANAPOLIS   MOCLDY    73  43  33 NW5       30.01S
6HR MIN TEMP:  71; 6HR MAX TEMP:  76;

-EAGLE CREEK   MOCLDY    72  45  37 N6        30.02S
6HR MIN TEMP:  71; 6HR MAX TEMP:  75;

KOKOMO *+      PTCLDY    73  48  40 W5        30.03R
6HR MIN TEMP:  72; 6HR MAX TEMP:  75;

MARION +       PTCLDY    70  42  37 SW6       30.03S
MT COMFORT *+  MOCLDY    68  34  28 N6        30.04R
SHELBYVILLE    MOCLDY    72  48  42 N5        30.01F
6HR MIN TEMP:  72; 6HR MAX TEMP:  78;

ZIONSVILLE +   PTCLDY    71  46  41 N3        30.04S
6HR MIN TEMP:  71; 6HR MAX TEMP:  75;


$$

INZ033-034-041-042-049-050-058-059-180100-
EAST CENTRAL INDIANA

CITY           SKY/WX    TMP DP  RH WIND       PRES   REMARKS
MUNCIE         MOCLDY    71  43  36 NW6       30.03S
6HR MIN TEMP:  70; 6HR MAX TEMP:  75;


$$

INZ060-061-067>069-081>083-085>088-180100-
SOUTHWEST INDIANA

CITY           SKY/WX    TMP DP  RH WIND       PRES   REMARKS
EVANSVILLE     MOCLDY    75  56  51 CALM      30.00F
6HR MIN TEMP:  73; 6HR MAX TEMP:  77;

HUNTINGBURG *+ MOCLDY    70  57  64 W5        30.01R
6HR MIN TEMP:  70; 6HR MAX TEMP:  75;

WASHINGTON +   MOCLDY    72  53  52 CALM      30.00S
6HR MIN TEMP:  72; 6HR MAX TEMP:  75;


$$

INZ062-063-066-070>080-084-089>092-180100-
SOUTH CENTRAL AND SOUTHEAST INDIANA

CITY           SKY/WX    TMP DP  RH WIND       PRES   REMARKS
BLOOMINGTON    MOCLDY    72  50  45 N6        30.01S
6HR MIN TEMP:  72; 6HR MAX TEMP:  78;

MADISON *+     MOCLDY    72  50  46 CALM      30.03S

$$



USA.gov is the U.S. government's official web portal to all federal, state and local government web resources and services.